Welcome to the New NWS' Forecast!
Most changes are behind the scenes, but click here for differences you might notice.

Regional Weather Roundup (RWR)

Issued by Gray - Portland, ME (GYX)

                            
384 
ASUS41 KGYX 231210
RWRGYX
WEATHER ROUNDUP FOR MAINE AND NEW HAMPSHIRE
NATIONAL WEATHER SERVICE GRAY ME
700 AM EST TUE JAN 23 2018

MEZ002-005-006-010-012-015-018-020-021-024-026-027-029-231300-
MAINE
  
CITY           SKY/WX    TMP DP  RH WIND       PRES   REMARKS
PORTLAND       FRZ DRZL  23  22  96 N7        30.00F                  
6HR MIN TEMP:  22; 6HR MAX TEMP:  23; 6HR PCP: TRACE;                

SANFORD        MIX PCPN  23  22  96 N9        29.98F FOG              
BAR HARBOR     LGT RAIN  33  32  96 E12G22    30.08F                  
WISCASSET      CLOUDY    24  24 100 VRB3      30.03F FOG              
6HR MIN TEMP:  22; 6HR MAX TEMP:  25; 6HR PCP:  0.03;                

ROCKLAND       MIX PCPN  31  31 100 NE10G16   30.03F                  
FRYEBURG       FRZ RAIN  24  24 100 NE7       29.98F FOG              
6HR MIN TEMP:  22; 6HR MAX TEMP:  23; 6HR PCP: TRACE;                

LEWISTONAUBURN MIX PCPN  21  19  92 N13       30.00F FOG     WCI   9  
AUGUSTA        FRZ RAIN  20  18  92 N8        30.04F FOG              
6HR MIN TEMP:  18; 6HR MAX TEMP:  20; 6HR PCP:  0.04;                

WATERVILLE     MIX PCPN  19  17  92 N10       30.01F FOG     WCI   7  
BANGOR         FRZ DRZL  20  18  92 N6        30.08F FOG              
6HR MIN TEMP:  19; 6HR MAX TEMP:  20; 6HR PCP:  0.13;                

GREENVILLE       N/A     19  19 100 SE14G22   29.97F WCI   6          
6HR MIN TEMP:  13; 6HR MAX TEMP:  19; 6HR PCP:  0.15;                

MILLINOCKET    CLOUDY    14  12  92 VRB3      30.14F FOG              
6HR MIN TEMP:  13; 6HR MAX TEMP:  15; 6HR PCP:  0.17;                

HOULTON        LGT SNOW  15  11  83 MISG      30.13F FOG              
6HR MIN TEMP:  12; 6HR MAX TEMP:  15; 6HR PCP:  0.29;                

PRESQUE ISLE   SNOW      13  10  88 E6        30.16F VSB 1/2          
6HR MIN TEMP:  10; 6HR MAX TEMP:  13; 6HR PCP:  0.17;                

FRENCHVILLE    SNOW       8   4  83 E8        30.12F VSB 1/2          
6HR MIN TEMP:   5; 6HR MAX TEMP:   8; 6HR PCP:  0.19;                

CARIBOU        SNOW      13   8  81 E7        30.14F VSB 1/2          
6HR MIN TEMP:  10; 6HR MAX TEMP:  13; 6HR PCP:  0.45;                

$$

NHZ002-005-008-009-011-012-014-231300-
NEW HAMPSHIRE
  
CITY           SKY/WX    TMP DP  RH WIND       PRES   REMARKS
PORTSMOUTH     FRZ DRZL  25  24  95 N3        29.97F FOG              
ROCHESTER      CLOUDY    24  24 100 N7        29.96F FOG              
6HR MIN TEMP:  23; 6HR MAX TEMP:  25; 6HR PCP: TRACE;                

NASHUA         FRZ RAIN  28  27  96 NE3       29.98F FOG              
MANCHESTER     FRZ DRZL  27  26  96 CALM      29.97F FOG              
6HR MIN TEMP:  27; 6HR MAX TEMP:  29; 6HR PCP: TRACE;                

CONCORD        CLOUDY    27  25  92 NW3       29.98R FOG              
6HR MIN TEMP:  27; 6HR MAX TEMP:  28; 6HR PCP:  0.01;                

LACONIA        FLURRIES  25  23  92 E10       29.98R WCI  15          
PLYMOUTH       MIX PCPN  27  26  96 SE3       29.96S                  
BERLIN         FRZ RAIN  31  29  92 CALM      29.89F                  
6HR MIN TEMP:  28; 6HR MAX TEMP:  32; 6HR PCP:  0.01;                

WHITEFIELD     CLOUDY    34  32  92 CALM      29.82F                  
6HR MIN TEMP:  34; 6HR MAX TEMP:  43; 6HR PCP:  0.01;                

JAFFREY        CLOUDY    28  28 100 VRB3      29.89F FOG              
6HR MIN TEMP:  28; 6HR MAX TEMP:  29;                                

KEENE          CLOUDY    31  30  96 NW5       29.91F FOG              
LEBANON        CLOUDY    31  29  92 S5        29.89F FOG              
6HR MIN TEMP:  29; 6HR MAX TEMP:  31; 6HR PCP: TRACE;                

MT WASHINGTON  FRZ RAIN  32  32 100 S47G60      N/A  VSB 0   WCI  15  
6HR MIN TEMP:  19; 6HR MAX TEMP:  32; 6HR PCP:  0.06;                

$$

VTZ005-007-008-231300-
VERMONT
  
CITY           SKY/WX    TMP DP  RH WIND       PRES   REMARKS
ST JOHNSBURY     N/A     33  32  96 MISG      29.84F                  
MONTPELIER     CLOUDY    31  31 100 S12       29.87F FOG              
BURLINGTON     CLOUDY    38  33  82 SE7       29.74F                  
$$

MAZ007-012-024-CTZ003-RIZ002-NYZ038-NYZ072-231300-
SOUTHERN NEW ENGLAND AND NY
  
CITY           SKY/WX    TMP DP  RH WIND       PRES   REMARKS
BOSTON         FOG       32  32 100 N5        29.98S VSB 1/2          
WORCESTER      FOG       28  27  96 NE8       29.91S VSB 1/4          
NANTUCKET      CLOUDY    47  47 100 SE21      29.97F                  
PROVIDENCE     FOG       39  39 100 NE6       29.93F VSB 1/16         
HARTFORD       DRZL/FOG  33  33 100 N5        29.89F VSB 1/2          
ALBANY         LGT RAIN  40  37  89 S9        29.76F FOG              
NEW YORK CITY  LGT RAIN  43  42  97 CALM      29.78F FOG              
$$

ANZ081-ANZ082-ANZ150-NHZ014-MEZ023>029-231300-
COASTAL MARINE OBSERVATIONS
  
STATION/POSITION TIME  TEMP    WIND        PRES    WAVE
                       AIR SEA DIR/SP/G            HT/PER
                 (UTC) (F)     (DEG/KT/KT) (MB)    (FT/S)
MOUNT DESERT ROC 1200   43      90/ 28/ 31 1016.7F
MATINICUS ROCK   1100   43     100/ 18/ 20 1016.4F
ISLE OF SHOALS   1100   28      10/  3/  3 1015.8F
JEFFREYS LEDGE   1136      43                N/A     6/ 7
GEORGES BANK BUO 1050   44 51              1026.9    4/ 5
$$

.............KEY..............
   WCI - WIND CHILL
   TC  - TEMPERATURE IN CELSIUS
   VSB - VISIBILITY IN MILES
   HX  - HEAT INDEX
   FAIR- INDICATES FEW OR NO CLOUDS BELOW 12,000 FT, WITH NO 
         SIGNIFICANT WEATHER AND/OR OBSTRUCTIONS TO VISIBILITY.